Погода в Тукайтепе

Узбекистан     41°19′59″N   69°24′29″E
темп.,
°C
ветер,
м/с
пор.,
м/с
влажн.,
%
обл.,
%
осадки,
мм/ч
давл.,
гПа
погр.,
м
3 марта, ср
ср323:00+8ююв1164100 0.0 102424
02:00+8юв4774100 0.2 1024181
05:00+7ююв4480100 0.4 1024101
08:00+7ююв128485 0.0 102445
11:00+11юз346368 0.0 1023982
14:00+13юз345452 0.1 10211133
17:00+13юз335026 0.3 10211295
20:00+10ю116280 0.0 102222
4 марта, чт
чт423:00+8юв126083 0.0 102226
02:00+7всв125822 0.0 102123
05:00+7в225611 0.0 102022
08:00+8в12560 0.0 102023
11:00+14ю244250 0.0 1018590
14:00+16юз3638100 0.0 10162162
17:00+10в5678100 1.3 1017240
20:00+10вюв4566100 0.9 101987
5 марта, пт
пт523:00+7с369095 2.6 1023471
02:00+5сз6884100 2.7 1026618
05:00+4з1187100 5.2 1029314
08:00+4ссз238683 0.1 1031192
11:00+7зсз116243 0.1 1030758
14:00+10сз22420 0.0 10271177
17:00+11сз22400 0.0 1025840
20:00+7ссв12580 0.0 102522
6 марта, сб
сб623:00+6св23440 0.0 102333
02:00+5в114467 0.0 101922
05:00+5ссв234483 0.0 101628
08:00+7ссз1145100 0.0 101322
11:00+12з2133100 0.0 1010281
14:00+12ююз3330100 0.0 1011614
17:00+11ю4544100 0.0 1012404
20:00+9ю2357100 0.0 101364
7 марта, вс
вс723:00+8юз1263100 0.0 101543
02:00+6юв2382100 1.1 1015237
05:00+6з1190100 2.8 1017159
08:00+6юв4688100 1.3 1018361
11:00+6ю2288100 2.4 1019337
14:00+7св1180100 0.1 1018219
17:00+9сз1166100 0.1 1018421
20:00+7с2276100 0.0 101827